When you browse on this site, cookies collect data to enhance your experience and personalize the content and advertising you see.
Visit our Privacy Policy to learn more. By continuing to use the site, you agree to this use of cookies and data.
  • In Romania
  • List of Countries
  • For 7 days
  • Water Temperature
  • Weather Map
  • Weather Widgets
  • user-avatar
    Login

    Hourly Weather Eisenstadt

    Today, 18 October, Friday

    Time Temperature Precipitation Wind Pressure Humidity
    00:00 +10°C° 0 mm 2 mps 722 mmHg 92%
    01:00 +9°C° 0 mm 2 mps 722 mmHg 93%
    02:00 +9°C° 0 mm 2 mps 722 mmHg 92%
    03:00 +10°C° 0 mm 1 mps 722 mmHg 92%
    04:00 +10°C° 0 mm 1 mps 721 mmHg 92%
    05:00 +10°C° 0 mm 1 mps 722 mmHg 91%
    06:00 +10°C° 0 mm 1 mps 722 mmHg 89%
    07:00 +10°C° 0 mm 0 mps 722 mmHg 89%
    08:00 +13°C° 0 mm 1 mps 722 mmHg 82%
    09:00 +14°C° 0 mm 1 mps 722 mmHg 75%
    10:00 +16°C° 0 mm 1 mps 722 mmHg 68%
    11:00 +18°C° 0 mm 1 mps 722 mmHg 66%
    12:00 +19°C° 0 mm 1 mps 722 mmHg 63%
    13:00 +19°C° 0 mm 1 mps 722 mmHg 60%
    14:00 +19°C° 0 mm 1 mps 721 mmHg 64%
    15:00 +18°C° 0 mm 1 mps 721 mmHg 67%
    16:00 +18°C° 0 mm 1 mps 721 mmHg 70%
    17:00 +16°C° 0 mm 1 mps 721 mmHg 75%
    18:00 +14°C° 0 mm 1 mps 721 mmHg 79%
    19:00 +13°C° 0 mm 1 mps 721 mmHg 84%
    20:00 +13°C° 0 mm 1 mps 721 mmHg 85%
    21:00 +12°C° 0 mm 1 mps 721 mmHg 86%
    22:00 +12°C° 0 mm 1 mps 721 mmHg 86%
    23:00 +12°C° 0 mm 1 mps 721 mmHg 87%

    Tomorrow, 19 October, Saturday

    Time Temperature Precipitation Wind Pressure Humidity
    00:00 +11°C° 0 mm 1 mps 721 mmHg 87%
    01:00 +10°C° 0 mm 0 mps 721 mmHg 87%
    02:00 +10°C° 0 mm 0 mps 721 mmHg 88%
    03:00 +10°C° 0 mm 0 mps 721 mmHg 90%
    04:00 +9°C° 0 mm 0 mps 721 mmHg 91%
    05:00 +9°C° 0 mm 0 mps 721 mmHg 92%
    06:00 +10°C° 0 mm 1 mps 721 mmHg 92%
    07:00 +10°C° 0 mm 1 mps 720 mmHg 93%
    08:00 +12°C° 0 mm 2 mps 720 mmHg 86%
    09:00 +13°C° 0 mm 3 mps 720 mmHg 80%
    10:00 +14°C° 0 mm 3 mps 720 mmHg 73%
    11:00 +17°C° 0 mm 4 mps 720 mmHg 68%
    12:00 +18°C° 0 mm 4 mps 720 mmHg 63%
    13:00 +19°C° 0 mm 5 mps 720 mmHg 58%
    14:00 +19°C° 0 mm 4 mps 720 mmHg 60%
    15:00 +19°C° 0 mm 4 mps 720 mmHg 62%
    16:00 +18°C° 0 mm 3 mps 719 mmHg 65%
    17:00 +17°C° 0 mm 3 mps 720 mmHg 71%
    18:00 +15°C° 0 mm 2 mps 720 mmHg 77%
    19:00 +14°C° 0 mm 2 mps 720 mmHg 84%
    20:00 +13°C° 0 mm 2 mps 720 mmHg 85%
    21:00 +13°C° 0 mm 2 mps 720 mmHg 86%
    22:00 +13°C° 0 mm 1 mps 721 mmHg 88%
    23:00 +12°C° 0 mm 1 mps 721 mmHg 88%

    Day after tomorrow, 20 October, Sunday

    Time Temperature Precipitation Wind Pressure Humidity
    00:00 +12°C° 0 mm 1 mps 721 mmHg 89%
    01:00 +12°C° 0 mm 1 mps 721 mmHg 89%
    02:00 +11°C° 0 mm 1 mps 721 mmHg 90%
    03:00 +11°C° 0 mm 1 mps 720 mmHg 91%
    04:00 +11°C° 0 mm 1 mps 720 mmHg 91%
    05:00 +11°C° 0 mm 1 mps 720 mmHg 92%
    06:00 +11°C° 0 mm 1 mps 720 mmHg 92%
    07:00 +11°C° 0 mm 1 mps 720 mmHg 92%
    08:00 +13°C° 0 mm 2 mps 721 mmHg 85%
    09:00 +14°C° 0 mm 3 mps 721 mmHg 77%
    10:00 +17°C° 0 mm 4 mps 721 mmHg 69%
    11:00 +18°C° 0 mm 4 mps 721 mmHg 65%
    12:00 +19°C° 0 mm 5 mps 721 mmHg 61%
    13:00 +21°C° 0 mm 6 mps 721 mmHg 57%
    14:00 +20°C° 0 mm 5 mps 721 mmHg 59%
    15:00 +20°C° 0 mm 5 mps 720 mmHg 61%
    16:00 +19°C° 0 mm 5 mps 720 mmHg 63%
    17:00 +17°C° 0 mm 5 mps 720 mmHg 68%
    18:00 +16°C° 0 mm 5 mps 720 mmHg 72%
    19:00 +15°C° 0 mm 5 mps 720 mmHg 77%
    20:00 +14°C° 0 mm 4 mps 720 mmHg 79%
    21:00 +14°C° 0 mm 4 mps 720 mmHg 80%
    22:00 +13°C° 0 mm 4 mps 720 mmHg 82%
    23:00 +13°C° 0 mm 3 mps 720 mmHg 83%

    21 October, Monday

    Time Temperature Precipitation Wind Pressure Humidity
    00:00 +12°C° 0 mm 3 mps 720 mmHg 84%
    01:00 +13°C° 0 mm 2 mps 720 mmHg 86%
    02:00 +13°C° 0 mm 2 mps 720 mmHg 85%
    03:00 +12°C° 0 mm 2 mps 721 mmHg 84%
    04:00 +12°C° 0 mm 2 mps 721 mmHg 84%
    05:00 +12°C° 0 mm 1 mps 721 mmHg 82%
    06:00 +12°C° 0 mm 1 mps 721 mmHg 81%
    07:00 +12°C° 0 mm 1 mps 721 mmHg 79%
    08:00 +14°C° 0 mm 1 mps 722 mmHg 73%
    09:00 +16°C° 0 mm 1 mps 722 mmHg 66%
    10:00 +19°C° 0 mm 1 mps 723 mmHg 60%
    11:00 +20°C° 0 mm 1 mps 723 mmHg 58%
    12:00 +21°C° 0 mm 1 mps 723 mmHg 56%
    13:00 +22°C° 0 mm 1 mps 723 mmHg 54%
    14:00 +21°C° 0 mm 1 mps 723 mmHg 59%
    15:00 +20°C° 0 mm 1 mps 723 mmHg 63%
    16:00 +20°C° 0 mm 1 mps 723 mmHg 68%
    17:00 +18°C° 0 mm 1 mps 723 mmHg 72%
    18:00 +16°C° 0 mm 1 mps 724 mmHg 76%
    19:00 +15°C° 0 mm 1 mps 724 mmHg 80%
    20:00 +15°C° 0 mm 1 mps 724 mmHg 80%
    21:00 +14°C° 0 mm 1 mps 724 mmHg 81%
    22:00 +14°C° 0 mm 1 mps 725 mmHg 81%
    23:00 +14°C° 0 mm 1 mps 725 mmHg 82%

    22 October, Tuesday

    Time Temperature Precipitation Wind Pressure Humidity
    00:00 +14°C° 0 mm 1 mps 725 mmHg 83%
    01:00 +14°C° 0 mm 1 mps 725 mmHg 83%
    02:00 +13°C° 0 mm 1 mps 725 mmHg 84%
    03:00 +13°C° 0 mm 1 mps 726 mmHg 85%
    04:00 +13°C° 0 mm 1 mps 726 mmHg 86%
    05:00 +13°C° 0 mm 1 mps 726 mmHg 87%
    06:00 +13°C° 0 mm 1 mps 726 mmHg 87%
    07:00 +13°C° 0 mm 1 mps 726 mmHg 87%
    08:00 +15°C° 0 mm 1 mps 727 mmHg 80%
    09:00 +18°C° 0 mm 1 mps 727 mmHg 72%
    10:00 +19°C° 0 mm 2 mps 728 mmHg 65%
    11:00 +19°C° 0 mm 2 mps 728 mmHg 64%
    12:00 +19°C° 0 mm 2 mps 728 mmHg 62%
    13:00 +20°C° 0 mm 2 mps 728 mmHg 61%
    14:00 +19°C° 0 mm 2 mps 727 mmHg 63%
    15:00 +18°C° 0 mm 2 mps 727 mmHg 66%
    16:00 +19°C° 0 mm 1 mps 727 mmHg 68%
    17:00 +18°C° 0 mm 1 mps 727 mmHg 71%
    18:00 +15°C° 0 mm 1 mps 727 mmHg 74%
    19:00 +14°C° 0 mm 1 mps 727 mmHg 77%
    20:00 +14°C° 0 mm 1 mps 727 mmHg 78%
    21:00 +13°C° 0 mm 1 mps 727 mmHg 79%
    22:00 +13°C° 0 mm 1 mps 727 mmHg 80%
    23:00 +13°C° 0 mm 1 mps 727 mmHg 82%

    23 October, Wednesday

    Time Temperature Precipitation Wind Pressure Humidity
    00:00 +13°C° 0 mm 1 mps 727 mmHg 84%
    01:00 +12°C° 0 mm 1 mps 727 mmHg 87%
    02:00 +12°C° 0 mm 1 mps 726 mmHg 88%
    03:00 +12°C° 0 mm 1 mps 726 mmHg 89%
    04:00 +12°C° 0 mm 1 mps 726 mmHg 90%
    05:00 +12°C° 0 mm 1 mps 726 mmHg 91%
    06:00 +12°C° 0 mm 2 mps 726 mmHg 91%
    07:00 +12°C° 0 mm 2 mps 726 mmHg 92%
    08:00 +14°C° 0 mm 2 mps 726 mmHg 85%
    09:00 +16°C° 0 mm 3 mps 726 mmHg 77%
    10:00 +18°C° 0 mm 3 mps 726 mmHg 70%
    11:00 +18°C° 0 mm 4 mps 725 mmHg 67%
    12:00 +19°C° 0 mm 4 mps 725 mmHg 64%
    13:00 +20°C° 0 mm 4 mps 725 mmHg 61%
    14:00 +20°C° 0 mm 4 mps 724 mmHg 64%
    15:00 +19°C° 0 mm 4 mps 724 mmHg 67%
    16:00 +19°C° 0 mm 3 mps 724 mmHg 70%
    17:00 +17°C° 0 mm 3 mps 724 mmHg 75%
    18:00 +16°C° 0 mm 3 mps 723 mmHg 80%
    19:00 +14°C° 0 mm 3 mps 723 mmHg 84%
    20:00 +14°C° 0 mm 3 mps 723 mmHg 86%
    21:00 +13°C° 0 mm 3 mps 723 mmHg 88%
    22:00 +14°C° 0 mm 2 mps 723 mmHg 90%
    23:00 +13°C° 0 mm 2 mps 723 mmHg 90%
    Show more